Torna al catalogo

STARLINK-36159

AttivoComunicazioniVLEO
NORAD 67079·PAYLOAD·🇺🇸 United States

Lanciato Dec 14, 2025 da Vandenberg Space Force Base

Loading…

Prossimi Passaggi (prossime 24 ore)

TLE

AggiornatoSource: CelesTrak SupGP

Epoca: Sep 14, 2026, 22:54 UTC

1 67079C 25298E   26257.95465278  .00035750  00000+0  29956-2 0  2572
2 67079  69.9991 257.1116 0003949 264.4049   6.3883 14.98315788    14

Traccia STARLINK-36159 in tempo reale con AllMySat

Download on the App Store